Location: Caltech
(34.1382°N, 118.1253°W)
Time: 18:12:15
(UTC-08:00)

Aureole 2 Rocket - Visible Passes

Search period start: 23 February 2018 00:00
Search period end: 05 March 2018 00:00
Orbit: 325 x 537 km, 73.9° (Epoch: 23 February)

Date Brightness Start Highest point End Pass type
(mag) Time Alt. Az. Time Alt. Az. Time Alt. Az.
24 Feb 3.5 05:27:23 10° S 05:29:54 36° ESE 05:32:25 10° NE visible
25 Feb 5.3 04:46:56 10° SE 04:48:02 12° E 04:49:09 10° ENE visible
26 Feb 2.2 05:38:00 10° SW 05:40:33 39° WNW 05:43:08 10° N visible
27 Feb 2.6 04:57:09 23° S 04:58:30 49° ESE 05:01:09 10° NNE visible
28 Feb 5.2 04:17:16 14° E 04:17:16 14° E 04:18:14 10° ENE visible
28 Feb 4.0 05:50:35 10° W 05:51:19 11° WNW 05:52:03 10° NW visible
01 Mar 3.5 05:10:15 21° NNW 05:10:15 21° NNW 05:11:33 10° N visible
02 Mar 5.0 04:29:38 10° NNE 04:29:38 10° NNE 04:29:40 10° NNE visible
